User: anonymous   Login
Location: Burland Observatory
(39.4088°N, 105.4217°W)
Time: 11:29:58
(UTC-07:00)
Language:

Courier 1B Rocket - Orbit

View from above orbital plane
View from above orbital plane
View from above satellite
View from above satellite

Ground track
Ground track

The orbit data is extracted from the following two-line orbital elements,

1    59U 60013B   19346.02558196  .00000067  00000-0 -29306-4 0  9991
2    59  28.2477 106.1080 0189073 144.6525 216.6716 13.52972188921576
Epoch (UTC): 12 December 2019 00:36:50
Eccentricity: 0.0189073
inclination: 28.2477°
perigee height: 920 km
apogee height: 1202 km
right ascension of ascending node: 106.1080°
argument of perigee: 144.6525°
revolutions per day: 13.52972188
mean anomaly at epoch: 216.6716°
orbit number at epoch: 92157

The dashed part of the orbit path shows where the satellite is in the earth's shadow,  

DLR